Regional Weather Roundup
Issued by NWS

Home | Current Version | Previous Version | Graphics & Text | Print | Product List | Glossary On
Versions: 1 2 3 4 5 6 7 8 9 10 11 12 13 14 15 16 17 18 19 20 21 22 23 24 25 26 27 28
000
ASUS45 KGTF 031310
RWRMT
MONTANA HOURLY WEATHER ROUNDUP
NATIONAL WEATHER SERVICE GREAT FALLS MT
700 AM MDT SUN MAY 03 2015

NOTE: "FAIR" INDICATES FEW OR NO CLOUDS BELOW 12000 FEET WITH NO
SIGNIFICANT WEATHER AND/OR OBSTRUCTIONS TO VISIBILITY.

MTZ001>007-043-031400-
WEST OF THE DIVIDE

CITY           SKY/WX    TMP DP  RH WIND       PRES   REMARKS
KALISPELL      SUNNY     27  21  78 CALM      30.00R
MISSOULA       CLEAR     32  23  69 CALM      30.01R
BUTTE          CLEAR     25  18  74 S3        30.01R
DEER LODGE       N/A     30  25  80 CALM      30.05R
EUREKA           N/A     25  19  80 CALM      30.06R
LIBBY            N/A     28  25  86 SE3       30.05R
$$

MTZ008-052>055-031400-
SOUTHWEST MONTANA

CITY           SKY/WX    TMP DP  RH WIND       PRES   REMARKS
BOZEMAN        CLEAR     38  30  73 NE6       30.00R
DILLON         PTCLDY    37  26  64 CALM      29.97R
$$

MTZ009-010-012-014-046-048-049-054-031400-
EAST SLOPES AND CENTRAL MONTANA

CITY           SKY/WX    TMP DP  RH WIND       PRES   REMARKS
CUT BANK       CLEAR     30  25  81 E3        30.01R
GREAT FALLS    CLEAR     34  26  72 W3        30.01S
MALMSTROM AFB  CLEAR     32  28  87 SW3       30.03R
HELENA         CLEAR     39  28  64 W5        30.01R
$$

MTZ011-013-016-021-045-047-050-051-031400-
NORTH CENTRAL MONTANA

CITY           SKY/WX    TMP DP  RH WIND       PRES   REMARKS
HAVRE          CLOUDY    36  26  67 CALM      30.04R
LEWISTOWN      CLOUDY    42  33  70 E3        30.03R
CHINOOK          N/A     37  27  65 CALM      30.06R
FORT BENTON      N/A     37  28  70 S3        30.05R
$$

MTZ017>020-022>042-056>058-061-062-031400-
EASTERN PLAINS

CITY           SKY/WX    TMP DP  RH WIND       PRES   REMARKS
BAKER          CLOUDY    47  35  63 NE7       29.99R
BILLINGS       PTCLDY    43  32  65 N6        30.03R
GLASGOW        CLOUDY    40  31  70 NW6       30.01R
JORDAN           N/A     45  29  53 N8        30.01R
LIVINGSTON     PTCLDY    43  33  68 E12       30.01R
MILES CITY     PTSUNNY   46  34  62 NW6       30.00R
SIDNEY         PTSUNNY   46  36  66 NW8       29.99R
WOLF POINT     SUNNY     41  31  67 SW3       30.02R
BIG TIMBER       N/A     43  32  65 N7        30.04R
FORSYTH          N/A     46  34  61 N8        30.02R
PLENTYWOOD       N/A     39  34  81 W6        29.99R
POPLAR           N/A     37  34  87 CALM      30.02R
$$

REGIONAL REPORTS...DAKOTAS

CITY           SKY/WX    TMP DP  RH WIND       PRES   REMARKS
WILLISTON      MOSUNNY   43  34  70 E3        29.98R
MINOT          PTSUNNY   47  33  58 W17       29.92R
DICKINSON      CLOUDY    48  37  65 N6        29.95R
BEACH          PTSUNNY   41  37  87 CALM      30.00R
CROSBY         FAIR      41  32  70 W10       29.97R
WATFORD CITY   FAIR      45  36  70 N8        29.97R
BISMARCK       CLOUDY    53  37  54 N8G17     29.93R
GRAND FORKS    CLOUDY    50  39  66 NW16      29.81R
FARGO          MOSUNNY   54  43  66 N14       29.79R
BUFFALO SD       N/A     50  36  58 NE12      29.90R
RAPID CITY     MOSUNNY   51  35  54 N22G30    29.92R
$$

REGIONAL REPORTS...WYOMING/IDAHO/WASHINGTON

CITY           SKY/WX    TMP DP  RH WIND       PRES   REMARKS
GILLETTE       MOSUNNY   47  37  68 N5        29.97R
SHERIDAN       MOSUNNY   45  38  76 NW9       30.00R
BUFFALO WY     MOSUNNY   49  36  61 N3        30.00R
CODY           CLEAR     43  34  70 NE6       30.00R
YELLOWSTONE LA   N/A     28  23  81 CALM      30.04R
IDAHO FALLS    MOCLDY    50  31  48 N10       29.92R
SALMON         PTCLDY    32  27  80 CALM      29.96R
BOISE          CLEAR     47  33  58 SW3       29.86R
SPOKANE        PTCLDY    43  23  45 NE8       29.98R
$$

REGIONAL REPORTS...ALBERTA

CITY           SKY/WX    TMP DP  RH WIND       PRES   REMARKS
EDMONTON       CLEAR     34  30  86 NW5       30.02R
CALGARY        PTCLDY    34  27  75 NW3       30.04S
LETHBRIDGE     MOCLDY    34  32  93 VRB2      30.03R
MEDICINE HAT   MOCLDY    32  28  86 CALM      30.06R
$$

REGIONAL REPORTS...SASKATCHEWAN

CITY           SKY/WX    TMP DP  RH WIND       PRES   REMARKS
SWIFT CURRENT  SUNNY     32  28  86 W12       30.00R WCI  23
REGINA         SUNNY     36  34  93 W14       29.95R WCI  27
SASKATOON      SUNNY     37  36  93 NW9       29.98R WCI  31
$$



USA.gov is the U.S. government's official web portal to all federal, state and local government web resources and services.